Regional Weather Roundup
Issued by NWS

Home | Current Version | Previous Version | Graphics & Text | Print | Product List | Glossary On
Versions: 1 2 3 4 5 6 7 8 9 10 11 12 13 14 15 16 17 18 19 20 21 22 23 24 25 26 27 28 29 30 31 32 33 34 35 36 37 38 39 40 41 42 43 44 45 46 47 48 49 50
000
ASUS43 KLMK 240502
RWRKY
KENTUCKY REGIONAL WEATHER ROUNDUP
NATIONAL WEATHER SERVICE LOUISVILLE KY
100 AM EDT TUE APR 24 2018

NOTE "FAIR" INDICATES FEW OR NO CLOUDS BELOW 12,000 FEET
WITH NO SIGNIFICANT WEATHER AND/OR OBSTRUCTIONS TO VISIBILITY.

KYZ001>023-026-027-061>063-070>075-240600-
WESTERN AND SOUTH CENTRAL KENTUCKY

CITY           SKY/WX    TMP DP  RH WIND       PRES   REMARKS
PADUCAH        FOG       52  52 100 CALM      29.91S VSB 1/2
HENDERSON      CLOUDY    56  54  93 NE3       29.94S
OWENSBORO      CLOUDY    58  54  86 E5        29.94F
HOPKINSVILLE   MOCLDY    54  54 100 NE5       29.90F
BOWLING GREEN  CLOUDY    56  55  97 NE3       29.92F
GLASGOW        NOT AVBL
$$

KYZ024-025-028>034-038-045-046-053-240600-
NORTH CENTRAL KENTUCKY

CITY           SKY/WX    TMP DP  RH WIND       PRES   REMARKS
LOUISVILLE/SDF LGT RAIN  56  52  86 NE6       29.97F
LOUISVILLE/LOU LGT RAIN  56  54  93 NE8       29.97F
FORT KNOX      CLOUDY    54  54  99 NE8       29.96S
$$

KYZ035>037-039>044-047>052-055>060-089>105-240600-
NORTHEAST KENTUCKY

CITY           SKY/WX    TMP DP  RH WIND       PRES   REMARKS
LEXINGTON      LGT RAIN  55  49  80 E5        29.98R
COVINGTON      CLOUDY    53  48  83 E12       30.01F
FRANKFORT      LGT RAIN  55  50  83 CALM      29.97S
$$

KYZ054-064>069-076>088-106>120-240600-
SOUTHEAST KENTUCKY

CITY           SKY/WX    TMP DP  RH WIND       PRES   REMARKS
JACKSON        LGT RAIN  55  46  71 VRB6      29.97F
LONDON         LGT RAIN  56  50  80 CALM      29.94S
SOMERSET       NOT AVBL
MIDDLESBORO    CLOUDY    54  52  95 CALM      29.96F
MONTICELLO     RAIN      54  53  97 W6        29.97S
$$




USA.gov is the U.S. government's official web portal to all federal, state and local government web resources and services.